Regional Weather Roundup
Issued by NWS Cleveland, OH

Home | Current Version | Previous Version | Graphics & Text | Print | Product List | Glossary On
Versions: 1 2 3 4 5 6 7 8 9 10 11 12 13 14 15 16 17 18 19 20 21 22 23 24 25 26 27 28 29 30 31 32 33 34 35 36 37 38 39 40 41 42 43 44 45 46 47 48 49 50
000
ASUS41 KCLE 290800
RWRCLE
OHIO REGIONAL WEATHER ROUNDUP
NATIONAL WEATHER SERVICE WILMINGTON, OH
400 AM EDT FRI MAY 29 2015

NOTE: "FAIR" INDICATES FEW OR NO CLOUDS BELOW 12,000 FEET WITH NO
SIGNIFICANT WEATHER AND/OR OBSTRUCTIONS TO VISIBILITY.

OHZ001>008-015>018-024>027-034-035-043-044-290900-
   NORTHWEST OHIO

CITY           SKY/WX    TMP DP  RH WIND       PRES   REMARKS
DEFIANCE       MOCLDY    63  58  83 CALM      30.14S
FINDLAY        CLEAR     66  60  81 SE7       30.15R
TOLEDO EXPRESS PTCLDY    63  56  78 CALM      30.15S
TOLEDO EXEC    PTCLDY    62  56  80 SE5       30.16S
LIMA           CLEAR     66  61  84 SE7       30.15S
$$

OHZ009>014-019>023-028>033-038-089-290900-
   NORTHEAST OHIO

CITY           SKY/WX    TMP DP  RH WIND       PRES   REMARKS
CLE-HOPKINS    PTCLDY    62  55  77 CALM      30.20S
CLE-LAKEFRONT  CLEAR     65  55  70 CALM      30.17S
CUY CO. ARPT   NOT AVBL
LORAIN-ELYRIA  CLEAR     61  56  83 SE6       30.19R
ASHTABULA      CLEAR     60  54  80 SE6       30.22S
AKRON-CANTON   PTCLDY    65  53  65 E6        30.20S
WOOSTER        NOT AVBL
MANSFIELD      CLEAR     64  57  78 SE5       30.19S
YOUNGSTOWN     PTCLDY    58  54  86 E7        30.21F
$$

OHZ042-051>053-060>062-070>072-077>081-290900-
  SOUTHWEST OHIO

CITY           SKY/WX    TMP DP  RH WIND       PRES   REMARKS
CINC-COVINGTON LGT RAIN  68  66  93 NE5       30.13F FOG
CINC-LUNKEN    RAIN      68  66  93 NW5       30.13S FOG
HAMILTON       HVY RAIN  68  67  96 CALM      30.15R FOG
DAYTON         NOT AVBL
WRIGHT-PAT AFB MOCLDY    67  65  93 NE3       30.14R
DAYTON GENERAL CLOUDY    68  65  90 SE3       30.14R
WILMINGTON     CLOUDY    69  63  81 CALM      30.15R
$$

OHZ036-037-039>041-045>050-054>059-063>069-073>076-082>088-290900-
  CENTRAL AND SOUTHEAST OHIO

CITY           SKY/WX    TMP DP  RH WIND       PRES   REMARKS
COLUMBUS       PTCLDY    68  62  81 E5        30.16R
OSU AIRPORT    PTCLDY    68  61  78 SE5       30.16R
BOLTON FIELD   NOT AVBL
RICKENBACK AFB NOT AVBL
NEWARK         CLEAR     62  60  93 CALM      30.17R
MARION         CLEAR     66  59  78 SE6       30.17S
LANCASTER      CLEAR     64  62  93 CALM      30.16S
ZANESVILLE     PTCLDY    63  58  83 CALM      30.17S
NEW PHILLY     CLEAR     61  57  87 CALM      30.19S
$$



USA.gov is the U.S. government's official web portal to all federal, state and local government web resources and services.